Radiation Dose at Monitoring Post of Fukushima Daini Nuclear Power Station
Date,Time,MP-1(microSv/h),MP-2(microSv/h),MP-3(microSv/h),MP-4(microSv/h),MP-5(microSv/h),MP-6(microSv/h),MP-7(microSv/h),Wind Direction,Wind Velocity(m/s),Rain
2020/10/21,00:00,0.173,0.154,0.252,0.238,0.244,0.136,0.083,north-northwest,5.4,No
2020/10/21,00:10,0.173,0.154,0.251,0.239,0.242,0.135,0.083,north-northwest,5.0,No
2020/10/21,00:20,0.174,0.153,0.250,0.238,0.241,0.135,0.083,north,5.1,No
2020/10/21,00:30,0.174,0.156,0.252,0.238,0.243,0.136,0.083,north,5.2,No
2020/10/21,00:40,0.173,0.154,0.250,0.238,0.242,0.135,0.083,north,5.5,No
2020/10/21,00:50,0.175,0.155,0.250,0.238,0.244,0.135,0.083,north,5.1,No
2020/10/21,01:00,0.175,0.155,0.251,0.238,0.243,0.136,0.083,north,4.8,No
2020/10/21,01:10,0.173,0.154,0.251,0.238,0.243,0.136,0.083,north,4.3,No
2020/10/21,01:20,0.174,0.154,0.250,0.237,0.243,0.137,0.084,north,4.0,No
2020/10/21,01:30,0.173,0.155,0.252,0.237,0.241,0.136,0.084,north,4.2,No
2020/10/21,01:40,0.173,0.153,0.251,0.239,0.243,0.136,0.083,north,3.7,No
2020/10/21,01:50,0.174,0.155,0.250,0.237,0.242,0.136,0.083,north,4.2,No
2020/10/21,02:00,0.174,0.155,0.252,0.237,0.242,0.134,0.083,north-northwest,4.2,No
2020/10/21,02:10,0.174,0.153,0.250,0.240,0.242,0.135,0.083,north-northwest,4.4,No
2020/10/21,02:20,0.175,0.154,0.250,0.238,0.242,0.135,0.082,north-northwest,4.4,No
2020/10/21,02:30,0.173,0.154,0.252,0.237,0.243,0.135,0.083,north-northwest,4.3,No
2020/10/21,02:40,0.173,0.154,0.250,0.238,0.242,0.136,0.083,north-northwest,3.9,No
2020/10/21,02:50,0.173,0.154,0.251,0.237,0.242,0.135,0.083,north-northwest,4.5,No
2020/10/21,03:00,0.175,0.154,0.251,0.238,0.243,0.136,0.083,north-northwest,4.5,No
2020/10/21,03:10,0.174,0.153,0.250,0.239,0.240,0.136,0.082,north-northwest,4.9,No
2020/10/21,03:20,0.173,0.154,0.252,0.239,0.242,0.136,0.082,north-northwest,4.9,No
2020/10/21,03:30,0.173,0.153,0.252,0.239,0.243,0.135,0.083,north-northwest,4.6,No
2020/10/21,03:40,0.174,0.154,0.251,0.239,0.242,0.136,0.083,north-northwest,4.0,No
2020/10/21,03:50,0.174,0.154,0.253,0.238,0.243,0.135,0.082,north-northwest,4.5,No
2020/10/21,04:00,0.173,0.153,0.251,0.237,0.241,0.135,0.083,north-northwest,5.1,No
2020/10/21,04:10,0.173,0.153,0.251,0.239,0.241,0.136,0.083,north-northwest,5.2,No
2020/10/21,04:20,0.173,0.155,0.251,0.238,0.242,0.136,0.083,north-northwest,5.1,No
2020/10/21,04:30,0.173,0.154,0.250,0.237,0.242,0.135,0.083,north-northwest,5.4,No
2020/10/21,04:40,0.173,0.155,0.250,0.238,0.243,0.135,0.082,north-northwest,5.7,No
2020/10/21,04:50,0.174,0.155,0.251,0.239,0.242,0.135,0.083,north-northwest,5.5,No
2020/10/21,05:00,0.175,0.154,0.251,0.238,0.241,0.135,0.083,north-northwest,4.8,No
2020/10/21,05:10,0.173,0.154,0.250,0.238,0.242,0.136,0.083,north-northwest,5.7,No
2020/10/21,05:20,0.173,0.155,0.252,0.238,0.241,0.135,0.083,north-northwest,6.0,No
2020/10/21,05:30,0.174,0.154,0.252,0.237,0.242,0.135,0.082,north-northwest,7.0,No
2020/10/21,05:40,0.173,0.153,0.250,0.238,0.242,0.134,0.083,north-northwest,6.8,No
2020/10/21,05:50,0.174,0.154,0.249,0.239,0.242,0.135,0.082,north-northwest,7.0,No
2020/10/21,06:00,0.173,0.154,0.251,0.238,0.242,0.135,0.083,north-northwest,7.3,No
2020/10/21,06:10,0.174,0.155,0.250,0.237,0.242,0.135,0.084,north-northwest,6.6,No
2020/10/21,06:20,0.174,0.155,0.250,0.238,0.241,0.135,0.083,north-northwest,6.7,No
2020/10/21,06:30,0.174,0.155,0.251,0.238,0.243,0.135,0.083,north-northwest,6.0,No
2020/10/21,06:40,0.174,0.155,0.251,0.237,0.242,0.135,0.083,north-northwest,6.9,No
2020/10/21,06:50,0.174,0.154,0.252,0.237,0.243,0.135,0.083,north-northwest,6.4,No
2020/10/21,07:00,0.174,0.154,0.251,0.238,0.243,0.135,0.083,north-northwest,6.1,No
2020/10/21,07:10,0.174,0.155,0.251,0.238,0.240,0.135,0.083,north-northwest,6.4,No
2020/10/21,07:20,0.173,0.154,0.251,0.238,0.244,0.134,0.083,north-northwest,6.6,No
2020/10/21,07:30,0.174,0.153,0.251,0.237,0.241,0.135,0.083,north-northwest,6.1,No
2020/10/21,07:40,0.174,0.155,0.250,0.238,0.243,0.135,0.083,north-northwest,5.7,No
2020/10/21,07:50,0.174,0.155,0.251,0.236,0.242,0.135,0.083,north-northwest,5.1,No
2020/10/21,08:00,0.175,0.154,0.250,0.238,0.242,0.134,0.083,north-northwest,4.4,No
2020/10/21,08:10,0.172,0.153,0.250,0.236,0.241,0.135,0.082,north-northwest,4.2,No
2020/10/21,08:20,0.174,0.153,0.250,0.238,0.243,0.135,0.083,north-northwest,4.2,No
2020/10/21,08:30,0.173,0.155,0.251,0.237,0.242,0.135,0.082,north-northwest,3.6,No
2020/10/21,08:40,0.175,0.153,0.250,0.239,0.243,0.136,0.082,north-northwest,3.1,No
2020/10/21,08:50,0.174,0.154,0.251,0.237,0.243,0.135,0.083,north-northwest,3.8,No
2020/10/21,09:00,0.175,0.152,0.251,0.239,0.243,0.135,0.082,north-northwest,2.2,No
2020/10/21,09:10,0.172,0.154,0.249,0.238,0.239,0.135,0.082,north,2.8,No
2020/10/21,09:20,0.175,0.154,0.252,0.236,0.244,0.136,0.083,north,2.4,No
2020/10/21,09:30,0.173,0.152,0.249,0.238,0.240,0.135,0.082,north-northeast,2.2,No
2020/10/21,09:40,0.174,0.155,0.251,0.236,0.240,0.134,0.082,north,3.9,No
2020/10/21,09:50,0.173,0.153,0.249,0.235,0.243,0.135,0.082,north-northeast,3.2,No
2020/10/21,10:00,0.172,0.153,0.251,0.237,0.239,0.134,0.083,north-northeast,3.4,No
2020/10/21,10:10,0.174,0.153,0.250,0.237,0.242,0.135,0.082,north-northeast,3.0,No
2020/10/21,10:20,0.172,0.154,0.250,0.239,0.242,0.136,0.083,north-northeast,3.2,No
2020/10/21,10:30,0.174,0.153,0.250,0.238,0.239,0.136,0.082,north-northeast,3.7,No
2020/10/21,10:40,0.175,0.152,0.250,0.237,0.244,0.135,0.083,north-northeast,3.3,No
2020/10/21,10:50,0.173,0.152,0.250,0.239,0.241,0.136,0.082,north-northeast,3.2,No
2020/10/21,11:00,0.174,0.150,0.250,0.237,0.242,0.135,0.083,north-northeast,4.1,No
2020/10/21,11:10,0.174,0.152,0.251,0.240,0.243,0.136,0.083,north-northeast,2.9,No
2020/10/21,11:20,0.175,0.154,0.251,0.238,0.241,0.135,0.083,north-northeast,3.3,No
2020/10/21,11:30,0.174,0.153,0.251,0.238,0.242,0.137,0.083,northeast,3.2,No
2020/10/21,11:40,0.175,0.154,0.250,0.239,0.242,0.135,0.082,north,2.9,No
2020/10/21,11:50,0.173,0.154,0.252,0.238,0.243,0.135,0.083,north-northeast,3.1,No
2020/10/21,12:00,0.175,0.153,0.249,0.239,0.241,0.135,0.082,north-northeast,2.6,No
2020/10/21,12:10,0.172,0.155,0.251,0.237,0.239,0.134,0.083,northeast,2.5,No
2020/10/21,12:20,0.175,0.153,0.251,0.239,0.244,0.136,0.082,north-northeast,1.9,No
2020/10/21,12:30,0.174,0.154,0.250,0.238,0.241,0.134,0.083,northeast,2.7,No
2020/10/21,12:40,0.172,0.154,0.251,0.237,0.241,0.135,0.082,northeast,3.2,No
2020/10/21,12:50,0.174,0.153,0.251,0.238,0.238,0.135,0.083,north-northeast,2.4,No
2020/10/21,13:00,0.172,0.154,0.249,0.239,0.243,0.135,0.082,northeast,2.7,No
2020/10/21,13:10,0.173,0.154,0.251,0.236,0.242,0.134,0.082,northeast,3.0,No
2020/10/21,13:20,0.172,0.153,0.251,0.235,0.241,0.135,0.082,northeast,3.3,No
2020/10/21,13:30,0.175,0.155,0.250,0.239,0.240,0.136,0.083,northeast,3.2,No
2020/10/21,13:40,0.173,0.154,0.250,0.239,0.239,0.136,0.082,northeast,3.2,No
2020/10/21,13:50,0.172,0.153,0.251,0.237,0.244,0.134,0.083,east-northeast,3.6,No
2020/10/21,14:00,0.174,0.154,0.251,0.238,0.241,0.135,0.082,east-northeast,2.8,No
2020/10/21,14:10,0.173,0.154,0.253,0.239,0.243,0.135,0.082,east-northeast,3.3,No
2020/10/21,14:20,0.173,0.154,0.251,0.238,0.244,0.135,0.083,northeast,2.6,No
2020/10/21,14:30,0.174,0.154,0.253,0.240,0.240,0.135,0.083,east-northeast,1.9,No
2020/10/21,14:40,0.172,0.155,0.251,0.238,0.244,0.134,0.082,east-northeast,2.0,No
2020/10/21,14:50,0.173,0.153,0.253,0.241,0.242,0.136,0.082,northeast,2.1,No
2020/10/21,15:00,0.174,0.155,0.250,0.238,0.242,0.134,0.083,east-northeast,2.4,No
2020/10/21,15:10,0.173,0.154,0.252,0.240,0.243,0.134,0.082,east-northeast,3.5,No
2020/10/21,15:20,0.174,0.155,0.251,0.238,0.242,0.134,0.082,east-northeast,2.8,No
2020/10/21,15:30,0.174,0.153,0.251,0.238,0.242,0.135,0.082,east-northeast,2.4,No
2020/10/21,15:40,0.175,0.155,0.251,0.238,0.241,0.134,0.082,east-northeast,3.8,No
2020/10/21,15:50,0.174,0.154,0.253,0.239,0.241,0.136,0.082,east-northeast,3.2,No
2020/10/21,16:00,0.174,0.154,0.252,0.237,0.240,0.135,0.082,east-northeast,2.7,No
2020/10/21,16:10,0.174,0.155,0.253,0.240,0.243,0.136,0.082,east-northeast,1.2,No
2020/10/21,16:20,0.173,0.153,0.251,0.239,0.240,0.136,0.082,east,1.4,No
2020/10/21,16:30,0.173,0.154,0.251,0.238,0.243,0.135,0.081,northeast,1.6,No
2020/10/21,16:40,0.175,0.155,0.252,0.239,0.242,0.135,0.082,northeast,2.3,No
2020/10/21,16:50,0.173,0.155,0.251,0.238,0.243,0.135,0.082,east-northeast,2.1,No
2020/10/21,17:00,0.173,0.154,0.253,0.239,0.240,0.134,0.082,east,2.0,No
2020/10/21,17:10,0.174,0.154,0.251,0.238,0.243,0.135,0.081,east-northeast,2.2,No
2020/10/21,17:20,0.175,0.155,0.251,0.239,0.241,0.134,0.082,east-northeast,2.2,No
2020/10/21,17:30,0.172,0.154,0.251,0.238,0.244,0.135,0.082,northeast,0.9,No
2020/10/21,17:40,0.174,0.154,0.250,0.239,0.242,0.135,0.082,northwest,1.6,No
2020/10/21,17:50,0.174,0.154,0.253,0.240,0.241,0.135,0.082,north-northeast,1.0,No
2020/10/21,18:00,0.174,0.154,0.251,0.237,0.242,0.135,0.081,north,0.9,No
2020/10/21,18:10,0.174,0.155,0.253,0.240,0.243,0.136,0.082,north-northwest,1.2,No
2020/10/21,18:20,0.174,0.154,0.251,0.239,0.243,0.135,0.082,north-northwest,1.7,No
2020/10/21,18:30,0.174,0.154,0.251,0.239,0.242,0.135,0.082,northwest,2.3,No
2020/10/21,18:40,0.175,0.154,0.252,0.239,0.243,0.136,0.082,northwest,1.9,No
2020/10/21,18:50,0.174,0.155,0.251,0.238,0.241,0.135,0.081,northwest,2.2,No
2020/10/21,19:00,0.174,0.155,0.253,0.240,0.244,0.136,0.082,northwest,2.2,No
2020/10/21,19:10,0.175,0.154,0.251,0.239,0.242,0.136,0.082,north-northwest,1.9,No
2020/10/21,19:20,0.174,0.153,0.252,0.238,0.243,0.135,0.082,north,1.2,No
2020/10/21,19:30,0.175,0.155,0.253,0.239,0.242,0.137,0.083,north-northeast,2.3,No
2020/10/21,19:40,0.174,0.154,0.252,0.239,0.242,0.135,0.082,north,1.7,No
2020/10/21,19:50,0.174,0.154,0.252,0.239,0.244,0.135,0.082,northwest,2.5,No
2020/10/21,20:00,0.173,0.154,0.252,0.240,0.242,0.135,0.082,northwest,2.5,No
2020/10/21,20:10,0.173,0.154,0.252,0.239,0.243,0.136,0.082,northwest,2.5,No
2020/10/21,20:20,0.174,0.153,0.252,0.238,0.241,0.136,0.082,north-northwest,2.6,No
2020/10/21,20:30,0.174,0.154,0.250,0.240,0.242,0.137,0.082,north-northwest,2.6,No
2020/10/21,20:40,0.174,0.154,0.251,0.237,0.243,0.135,0.082,north-northwest,2.4,No
2020/10/21,20:50,0.174,0.154,0.254,0.238,0.240,0.134,0.082,north,1.6,No
2020/10/21,21:00,0.173,0.154,0.252,0.239,0.243,0.135,0.082,north-northwest,1.5,No
2020/10/21,21:10,0.175,0.154,0.252,0.239,0.241,0.136,0.083,north,2.1,No
2020/10/21,21:20,0.174,0.155,0.252,0.239,0.243,0.135,0.083,north,1.7,No
2020/10/21,21:30,0.173,0.155,0.252,0.238,0.241,0.136,0.082,north,1.2,No
2020/10/21,21:40,0.175,0.154,0.254,0.238,0.243,0.136,0.082,north-northeast,1.5,No
2020/10/21,21:50,0.174,0.155,0.251,0.239,0.244,0.135,0.083,north-northwest,1.2,No
2020/10/21,22:00,0.174,0.154,0.252,0.239,0.242,0.136,0.082,northwest,1.5,No
2020/10/21,22:10,0.174,0.155,0.253,0.239,0.244,0.134,0.082,north-northwest,1.1,No
2020/10/21,22:20,0.174,0.154,0.251,0.238,0.242,0.135,0.082,northwest,2.7,No
2020/10/21,22:30,0.174,0.154,0.251,0.239,0.243,0.135,0.082,north-northwest,1.3,No
2020/10/21,22:40,0.173,0.154,0.252,0.239,0.242,0.136,0.083,north-northwest,2.1,No
2020/10/21,22:50,0.174,0.155,0.251,0.239,0.241,0.135,0.083,northwest,1.9,No
2020/10/21,23:00,0.173,0.154,0.252,0.238,0.243,0.135,0.082,west-northwest,2.1,No
2020/10/21,23:10,0.175,0.155,0.251,0.238,0.241,0.135,0.083,northwest,1.7,No
2020/10/21,23:20,0.173,0.153,0.253,0.239,0.243,0.136,0.082,northwest,1.5,No
2020/10/21,23:30,0.175,0.153,0.252,0.239,0.241,0.134,0.082,northwest,1.2,No
2020/10/21,23:40,0.175,0.155,0.252,0.240,0.243,0.136,0.083,north-northwest,1.7,No
2020/10/21,23:50,0.173,0.154,0.252,0.239,0.242,0.135,0.082,northwest,2.0,No
